Skip Page Navigation
NASA JPL Caltech
NASA Logo - Jet Propulsion Laboratory + View the NASA Portal
+ Center for Near-Earth Object Studies
JPL Home Earth Solar System Stars & Galaxies Technology
JPL Solar System Dynamics
BODIES ORBITS EPHEMERIDES TOOLS PHYSICAL DATA DISCOVERY FAQ SITE MAP
JPL Small-Body Database Browser
Search: [ help ]  
351950 (2006 TF85)
Classification: Main-belt Asteroid          SPK-ID: 2351950
Ephemeris | Orbit Diagram | Orbital Elements | Mission Design | Physical Parameters | Discovery Circumstances | Close-Approach Data ]

[ show orbit diagram ]
Orbital Elements at Epoch 2459000.5 (2020-May-31.0) TDB
Reference: JPL 9 (heliocentric ecliptic J2000)
 Element Value Uncertainty (1-sigma)   Units 
e .182762159680103 5.6915e-08  
a 3.102453768229277 3.3145e-08 au
q 2.535442617240021 1.7473e-07 au
i 6.585956032116511 8.2462e-06 deg
node 250.3253662652815 5.8925e-05 deg
peri 211.6092667617513 6.3331e-05 deg
M 133.6775915917306 2.4103e-05 deg
tp 2458259.339072160511
(2018-May-20.83907216)
0.0001299 TDB
period 1995.981008074367
5.46
3.1986e-05
8.757e-08
d
yr
n .1803624375901813 2.8904e-09 deg/d
Q 3.669464919218534 3.9203e-08 au
  Orbit Determination Parameters
   # obs. used (total)      169  
   data-arc span      8536 days (23.37 yr)  
   first obs. used      1997-03-08  
   last obs. used      2020-07-21  
   planetary ephem.      DE431  
   SB-pert. ephem.      SB431-N16  
   condition code      0  
   norm. resid. RMS      .67611  
   source      ORB  
   producer      Otto Matic  
   solution date      2020-Nov-11 16:42:29  

Additional Information
 Earth MOID = 1.55511 au 
 Jupiter MOID = 1.53865 au 
 T_jup = 3.185 
[ show covariance matrix ]

Ephemeris | Orbit Diagram | Orbital Elements | Mission Design | Physical Parameters | Discovery Circumstances | Close-Approach Data ]

Physical Parameter Table
Parameter Symbol Value Units Sigma Reference Notes
absolute magnitude H 16.2   n/a MPO434221  

351950 (2006 TF85)          Discovered 2006-Oct-13 by Spacewatch at Kitt Peak
Reference: 20130127/Numbers.arcLast Updated: 2013-01-31

[ show close-approach data ]
Ephemeris | Orbit Diagram | Orbital Elements | Mission Design | Physical Parameters | Discovery Circumstances | Close-Approach Data ]
ABOUT SSD CREDITS/AWARDS PRIVACY/COPYRIGHT GLOSSARY LINKS
FirstGov 2020-Dec-02 01:34 UT
(server date/time)  
NASA Home Page
Site Manager:   Ryan S. Park
Webmaster  Alan B. Chamberlin